INMARSAT 6-F1

Last updated on Sat Aug 15 2026 00:03:02 GMT+0000 (Coordinated Universal Time)

1 50319U 21128A 26226.58450807 -.00000187 00000+0 00000+0 0 9992 2 50319 0.0155 91.4463 0000105 93.6381 72.0897 1.00272670 16841
UTC large
Height (km)
Speed (km/s)
/
Latitude / Longitude
Inclination (degrees)
Orbital Period (minutes)
Azimuth
Elevation
Range (km)
Doppler Factor

Next 0 passes for location: London (51.5072 / 0.1276)

No passes found over London.
INMARSAT 6-F1